Location: Moscow
(55.7500°N, 37.5830°E)
Time: 07:48:17
(UTC+03:00)

A-11 Canister half - Pass Details

Date: 01 December 2021
Orbit: 1524 x 1684 km, 47.3° (Epoch: 17 January)

Event Time Altitude Azimuth Distance (km) Brightness Sun altitude
Exits shadow 03:26:40 39° 142° (SE) 2,334 9.9 -41.6°
Drops below altitude 10° 03:34:43 10° 89° (E) 3,878 11.7 -40.5°
Sets 03:38:03 0° 83° (E) 4,845 12.4 -40.1°
